WZZ1HE LHBP-LFPO

Flight info

Callsign WZZ1HE
Flight time 2h 3m
Altitude 36000
Route GILEP DCT ZOLKU DCT ABETI DCT BARUG DCT SBG DCT TRAUN DCT RAVED Y112 HOC/N0449F350 DCT MOROK DCT PENDU DCT JAVVU DCT DJL
Aircraft A321/M-SDE1E2E3FGIJ1J4RWXY/LB1

Departure

Time 2026-05-06 09:43
Airport Budapest Liszt Ferenc International Airport (LHBP)

Arrival

Time 2026-05-06 11:46
Airport Paris-Orly Airport (LFPO)
Time Latitude Longitude Altitude Speed Heading
2026-05-06 08:50 47.43563 19.26391 458 ft 0 kts 222°
2026-05-06 08:53 47.43563 19.26390 457 ft 0 kts 222°
2026-05-06 08:53 47.43563 19.26391 457 ft 0 kts 222°
2026-05-06 09:36 47.43567 19.26395 457 ft 3 kts 222°
2026-05-06 09:36 47.43580 19.26413 457 ft 3 kts 222°
2026-05-06 09:36 47.43591 19.26433 457 ft 3 kts 268°
2026-05-06 09:36 47.43589 19.26459 456 ft 3 kts 290°
2026-05-06 09:37 47.43581 19.26482 455 ft 3 kts 313°
2026-05-06 09:37 47.43580 19.26484 455 ft 0 kts 313°
2026-05-06 09:37 47.43586 19.26475 454 ft 3 kts 314°
2026-05-06 09:38 47.43605 19.26447 454 ft 5 kts 314°
2026-05-06 09:38 47.43634 19.26401 457 ft 7 kts 312°
2026-05-06 09:38 47.43678 19.26353 457 ft 9 kts 351°
2026-05-06 09:38 47.43734 19.26396 458 ft 10 kts 40°
2026-05-06 09:39 47.43794 19.26406 457 ft 10 kts 324°
2026-05-06 09:39 47.43845 19.26325 457 ft 12 kts 312°
2026-05-06 09:39 47.43899 19.26239 458 ft 9 kts 312°
2026-05-06 09:39 47.43944 19.26208 458 ft 7 kts
2026-05-06 09:40 47.43986 19.26248 458 ft 7 kts 42°
2026-05-06 09:40 47.43992 19.26256 459 ft 0 kts 42°
2026-05-06 09:42 47.43994 19.26259 459 ft 2 kts 42°
2026-05-06 09:42 47.44027 19.26305 461 ft 10 kts 45°
2026-05-06 09:42 47.44065 19.26405 469 ft 12 kts 74°
2026-05-06 09:42 47.44046 19.26557 470 ft 24 kts 125°
2026-05-06 09:43 47.43862 19.26858 472 ft 68 kts 133°
2026-05-06 09:43 47.43387 19.27624 466 ft 132 kts 133°
2026-05-06 09:43 47.42647 19.28820 525 ft 174 kts 136°
2026-05-06 09:43 47.41945 19.30207 1298 ft 171 kts 123°
2026-05-06 09:44 47.41373 19.31750 1967 ft 173 kts 125°
2026-05-06 09:44 47.40749 19.33383 2255 ft 193 kts 125°
2026-05-06 09:44 47.40047 19.35209 2502 ft 215 kts 124°
2026-05-06 09:44 47.39272 19.37231 2678 ft 239 kts 124°
2026-05-06 09:45 47.38340 19.39362 3122 ft 253 kts 136°
2026-05-06 09:45 47.36910 19.40882 3684 ft 256 kts 163°
2026-05-06 09:45 47.35174 19.41267 4352 ft 253 kts 190°
2026-05-06 09:45 47.33532 19.40455 5122 ft 249 kts 214°
2026-05-06 09:46 47.32307 19.38676 5895 ft 250 kts 238°
2026-05-06 09:46 47.31481 19.36404 6662 ft 252 kts 241°
2026-05-06 09:46 47.30671 19.34094 7378 ft 255 kts 241°
2026-05-06 09:46 47.29844 19.31757 8077 ft 259 kts 241°
2026-05-06 09:47 47.29004 19.29394 8797 ft 262 kts 241°
2026-05-06 09:47 47.28149 19.27003 9513 ft 266 kts 241°
2026-05-06 09:47 47.27282 19.24577 10150 ft 271 kts 241°
2026-05-06 09:47 47.26367 19.22023 10326 ft 293 kts 241°
2026-05-06 09:48 47.25380 19.19274 10454 ft 314 kts 242°
2026-05-06 09:48 47.24344 19.16378 10828 ft 324 kts 242°
2026-05-06 09:48 47.23286 19.13424 11371 ft 328 kts 242°
2026-05-06 09:48 47.22215 19.10439 11957 ft 332 kts 242°
2026-05-06 09:49 47.21187 19.07383 12526 ft 335 kts 249°
2026-05-06 09:49 47.20646 19.04041 13086 ft 339 kts 264°
2026-05-06 09:49 47.20762 19.00561 13656 ft 344 kts 280°
2026-05-06 09:49 47.21543 18.97262 14156 ft 350 kts 296°
2026-05-06 09:50 47.22923 18.94276 14652 ft 356 kts 306°
2026-05-06 09:50 47.24473 18.91413 15155 ft 359 kts 306°
2026-05-06 09:50 47.26037 18.88513 15647 ft 363 kts 306°
2026-05-06 09:50 47.27606 18.85577 16149 ft 367 kts 305°
2026-05-06 09:51 47.29185 18.82602 16673 ft 371 kts 305°
2026-05-06 09:51 47.30780 18.79592 17163 ft 374 kts 306°
2026-05-06 09:51 47.32393 18.76563 17675 ft 377 kts 305°
2026-05-06 09:51 47.33739 18.73265 18152 ft 375 kts 287°
2026-05-06 09:52 47.34523 18.69580 18556 ft 379 kts 285°
2026-05-06 09:52 47.35359 18.65880 19035 ft 381 kts 287°
2026-05-06 09:52 47.36239 18.62175 19489 ft 385 kts 287°
2026-05-06 09:52 47.37142 18.58445 19971 ft 387 kts 287°
2026-05-06 09:53 47.38048 18.54698 20495 ft 389 kts 287°
2026-05-06 09:53 47.38963 18.50937 20968 ft 391 kts 287°
2026-05-06 09:53 47.39884 18.47153 21441 ft 393 kts 287°
2026-05-06 09:53 47.40808 18.43349 21905 ft 395 kts 287°
2026-05-06 09:54 47.41732 18.39524 22361 ft 396 kts 287°
2026-05-06 09:54 47.42662 18.35680 22795 ft 398 kts 287°
2026-05-06 09:54 47.43590 18.31814 23227 ft 400 kts 287°
2026-05-06 09:54 47.44525 18.27931 23608 ft 402 kts 287°
2026-05-06 09:55 47.45466 18.24021 23960 ft 404 kts 287°
2026-05-06 09:55 47.46394 18.20153 24312 ft 406 kts 287°
2026-05-06 09:55 47.47328 18.16215 24640 ft 407 kts 287°
2026-05-06 09:55 47.48268 18.12255 24960 ft 409 kts 287°
2026-05-06 09:56 47.49216 18.08288 25282 ft 410 kts 287°
2026-05-06 09:56 47.50166 18.04298 25604 ft 412 kts 287°
2026-05-06 09:56 47.51121 18.00290 25928 ft 414 kts 287°
2026-05-06 09:56 47.52081 17.96270 26239 ft 415 kts 287°
2026-05-06 09:57 47.53037 17.92231 26550 ft 417 kts 287°
2026-05-06 09:57 47.53990 17.88169 26852 ft 418 kts 287°
2026-05-06 09:57 47.54949 17.84092 27165 ft 420 kts 287°
2026-05-06 09:57 47.55857 17.79980 27460 ft 420 kts 282°
2026-05-06 09:58 47.56522 17.75762 27710 ft 422 kts 280°
2026-05-06 09:58 47.57170 17.71514 27986 ft 424 kts 280°
2026-05-06 09:58 47.57827 17.67248 28254 ft 425 kts 280°
2026-05-06 09:58 47.58481 17.62972 28505 ft 427 kts 280°
2026-05-06 09:59 47.59143 17.58681 28766 ft 428 kts 280°
2026-05-06 09:59 47.59803 17.54365 29001 ft 430 kts 280°
2026-05-06 09:59 47.60465 17.50041 29243 ft 431 kts 280°
2026-05-06 09:59 47.61117 17.45700 29476 ft 433 kts 280°
2026-05-06 10:00 47.61773 17.41339 29707 ft 434 kts 279°
2026-05-06 10:00 47.62437 17.36957 29879 ft 438 kts 279°
2026-05-06 10:00 47.63113 17.32548 30035 ft 440 kts 279°
2026-05-06 10:00 47.63777 17.28115 30238 ft 440 kts 279°
2026-05-06 10:01 47.64441 17.23696 30555 ft 438 kts 279°
2026-05-06 10:01 47.65099 17.19300 30876 ft 435 kts 279°
2026-05-06 10:01 47.65754 17.14930 31209 ft 432 kts 279°
2026-05-06 10:01 47.66403 17.10590 31552 ft 429 kts 279°
2026-05-06 10:02 47.67046 17.06285 31901 ft 426 kts 279°
2026-05-06 10:02 47.67658 17.02058 32250 ft 423 kts 279°
2026-05-06 10:02 47.68261 16.97804 32598 ft 420 kts 278°
2026-05-06 10:02 47.68857 16.93516 32916 ft 418 kts 278°
2026-05-06 10:03 47.69438 16.89365 33250 ft 415 kts 278°
2026-05-06 10:03 47.70022 16.85183 33575 ft 412 kts 278°
2026-05-06 10:03 47.70592 16.81030 33896 ft 409 kts 278°
2026-05-06 10:03 47.71156 16.76900 34151 ft 408 kts 278°
2026-05-06 10:04 47.71727 16.72783 34347 ft 407 kts 278°
2026-05-06 10:04 47.72296 16.68662 34509 ft 407 kts 278°
2026-05-06 10:04 47.72855 16.64539 34671 ft 408 kts 278°
2026-05-06 10:04 47.73412 16.60403 34847 ft 408 kts 278°
2026-05-06 10:05 47.73976 16.56273 34998 ft 408 kts 278°
2026-05-06 10:05 47.74540 16.52135 35138 ft 409 kts 278°
2026-05-06 10:05 47.75101 16.47994 35300 ft 409 kts 278°
2026-05-06 10:05 47.75665 16.43851 35451 ft 410 kts 278°
2026-05-06 10:06 47.76228 16.39697 35593 ft 410 kts 277°
2026-05-06 10:06 47.76782 16.35544 35739 ft 410 kts 277°
2026-05-06 10:06 47.77882 16.27220 35835 ft 410 kts 277°
2026-05-06 10:07 47.78987 16.18896 35840 ft 411 kts 277°
2026-05-06 10:07 47.80088 16.10563 35832 ft 411 kts 277°
2026-05-06 10:08 47.81176 16.02226 35831 ft 410 kts 277°
2026-05-06 10:08 47.82269 15.93887 35829 ft 411 kts 277°
2026-05-06 10:09 47.83348 15.85539 35831 ft 411 kts 277°
2026-05-06 10:09 47.84421 15.77232 35862 ft 411 kts 276°
2026-05-06 10:10 47.85483 15.68863 35850 ft 412 kts 276°
2026-05-06 10:10 47.86542 15.60486 35848 ft 412 kts 276°
2026-05-06 10:11 47.87614 15.52100 35846 ft 412 kts 276°
2026-05-06 10:11 47.88667 15.43714 35845 ft 412 kts 276°
2026-05-06 10:12 47.89679 15.35311 35858 ft 410 kts 272°
2026-05-06 10:12 47.90146 15.26864 35851 ft 409 kts 270°
2026-05-06 10:13 47.90590 15.18409 35845 ft 409 kts 270°
2026-05-06 10:13 47.91038 15.09950 35849 ft 409 kts 270°
2026-05-06 10:14 47.91464 15.01494 35847 ft 409 kts 270°
2026-05-06 10:14 47.91816 14.94471 35864 ft 408 kts 270°
2026-05-06 10:15 47.92229 14.86054 35837 ft 406 kts 270°
2026-05-06 10:15 47.92648 14.77653 35845 ft 406 kts 270°
2026-05-06 10:16 47.93118 14.67896 35833 ft 406 kts 270°
2026-05-06 10:16 47.93451 14.60849 35836 ft 407 kts 270°
2026-05-06 10:17 47.93851 14.52435 35868 ft 407 kts 269°
2026-05-06 10:17 47.94237 14.44025 35858 ft 406 kts 269°
2026-05-06 10:18 47.94611 14.35619 35853 ft 406 kts 269°
2026-05-06 10:18 47.94993 14.27217 35848 ft 406 kts 269°
2026-05-06 10:19 47.95361 14.18871 35846 ft 406 kts 269°
2026-05-06 10:19 47.95724 14.10460 35873 ft 406 kts 269°
2026-05-06 10:20 47.96083 14.02064 35837 ft 405 kts 269°
2026-05-06 10:20 47.96431 13.93665 35833 ft 405 kts 269°
2026-05-06 10:21 47.96778 13.85269 35829 ft 406 kts 269°
2026-05-06 10:21 47.97114 13.76865 35829 ft 406 kts 269°
2026-05-06 10:22 47.97446 13.68452 35849 ft 406 kts 269°
2026-05-06 10:22 47.97765 13.60039 35835 ft 406 kts 268°
2026-05-06 10:23 47.98088 13.51618 35824 ft 407 kts 269°
2026-05-06 10:23 47.98400 13.43187 35821 ft 407 kts 268°
2026-05-06 10:24 47.98708 13.34755 35817 ft 407 kts 268°
2026-05-06 10:24 47.99002 13.26316 35841 ft 407 kts 268°
2026-05-06 10:25 47.99297 13.17864 35829 ft 408 kts 268°
2026-05-06 10:25 47.99591 13.09415 35824 ft 408 kts 268°
2026-05-06 10:26 47.99869 13.00959 35810 ft 408 kts 268°
2026-05-06 10:26 48.00149 12.92497 35809 ft 408 kts 268°
2026-05-06 10:27 47.99812 12.84180 35808 ft 403 kts 258°
2026-05-06 10:27 47.99045 12.75896 35833 ft 403 kts 258°
2026-05-06 10:28 47.98287 12.67617 35821 ft 402 kts 258°
2026-05-06 10:28 47.97526 12.59343 35816 ft 402 kts 258°
2026-05-06 10:29 47.96909 12.51033 35818 ft 403 kts 260°
2026-05-06 10:29 47.96322 12.42713 35807 ft 403 kts 259°
2026-05-06 10:30 47.95709 12.34397 35812 ft 403 kts 259°
2026-05-06 10:30 47.95099 12.26085 35815 ft 403 kts 259°
2026-05-06 10:31 47.94485 12.17777 35809 ft 403 kts 259°
2026-05-06 10:31 47.93864 12.09476 35816 ft 403 kts 259°
2026-05-06 10:32 47.93228 12.01173 35811 ft 403 kts 259°
2026-05-06 10:32 47.92592 11.92873 35832 ft 403 kts 259°
2026-05-06 10:33 47.91946 11.84571 35818 ft 404 kts 258°
2026-05-06 10:33 47.91298 11.76250 35806 ft 404 kts 258°
2026-05-06 10:34 47.90642 11.67922 35813 ft 405 kts 259°
2026-05-06 10:34 47.89985 11.59576 35815 ft 406 kts 258°
2026-05-06 10:35 47.89310 11.51223 35818 ft 406 kts 258°
2026-05-06 10:35 47.88642 11.42919 35839 ft 406 kts 258°
2026-05-06 10:36 47.87953 11.34562 35837 ft 407 kts 258°
2026-05-06 10:36 47.87257 11.26205 35825 ft 407 kts 258°
2026-05-06 10:37 47.86564 11.17846 35841 ft 407 kts 258°
2026-05-06 10:37 47.85866 11.09488 35849 ft 407 kts 258°
2026-05-06 10:38 47.85151 11.01126 35877 ft 407 kts 258°
2026-05-06 10:38 47.84432 10.92757 35867 ft 408 kts 258°
2026-05-06 10:39 47.83712 10.84382 35862 ft 408 kts 258°
2026-05-06 10:39 47.82989 10.75997 35858 ft 408 kts 258°
2026-05-06 10:40 47.82255 10.67607 35851 ft 409 kts 258°
2026-05-06 10:40 47.81502 10.59217 35868 ft 410 kts 258°
2026-05-06 10:41 47.80761 10.50802 35844 ft 410 kts 258°
2026-05-06 10:41 47.80000 10.42384 35839 ft 411 kts 258°
2026-05-06 10:42 47.79268 10.34287 35831 ft 412 kts 257°
2026-05-06 10:42 47.78494 10.25850 35824 ft 412 kts 257°
2026-05-06 10:43 47.77712 10.17402 35831 ft 413 kts 258°
2026-05-06 10:44 47.76527 10.04726 35839 ft 413 kts 257°
2026-05-06 10:44 47.75733 9.96328 35838 ft 413 kts 257°
2026-05-06 10:45 47.74934 9.87876 35827 ft 413 kts 257°
2026-05-06 10:45 47.74112 9.79380 35823 ft 413 kts 257°
2026-05-06 10:46 47.73305 9.70991 35854 ft 413 kts 257°
2026-05-06 10:46 47.72396 9.62574 35834 ft 413 kts 255°
2026-05-06 10:47 47.71351 9.54184 35827 ft 413 kts 255°
2026-05-06 10:47 47.70321 9.45782 35829 ft 414 kts 256°
2026-05-06 10:48 47.69277 9.37379 35832 ft 413 kts 255°
2026-05-06 10:48 47.68225 9.28989 35832 ft 414 kts 255°
2026-05-06 10:49 47.67178 9.20577 35865 ft 415 kts 255°
2026-05-06 10:49 47.66106 9.12159 35852 ft 415 kts 255°
2026-05-06 10:50 47.65046 9.03741 35841 ft 415 kts 255°
2026-05-06 10:50 47.63963 8.95343 35847 ft 415 kts 255°
2026-05-06 10:51 47.62887 8.86939 35851 ft 415 kts 255°
2026-05-06 10:51 47.61800 8.78539 35875 ft 415 kts 255°
2026-05-06 10:52 47.60703 8.70138 35866 ft 415 kts 255°
2026-05-06 10:52 47.59596 8.61743 35862 ft 415 kts 255°
2026-05-06 10:53 47.58490 8.53354 35860 ft 415 kts 255°
2026-05-06 10:53 47.57378 8.44972 35859 ft 415 kts 255°
2026-05-06 10:54 47.56253 8.36593 35883 ft 415 kts 254°
2026-05-06 10:54 47.55129 8.28200 35871 ft 416 kts 254°
2026-05-06 10:55 47.54000 8.19812 35863 ft 416 kts 254°
2026-05-06 10:55 47.52874 8.11472 35859 ft 416 kts 254°
2026-05-06 10:56 47.51719 8.03027 35862 ft 416 kts 254°
2026-05-06 10:56 47.50570 7.94688 35870 ft 416 kts 254°
2026-05-06 10:57 47.49398 7.86245 35874 ft 416 kts 254°
2026-05-06 10:57 47.48241 7.77913 35881 ft 416 kts 254°
2026-05-06 10:58 47.47077 7.69535 35880 ft 416 kts 253°
2026-05-06 10:58 47.46286 7.61032 35881 ft 420 kts 260°
2026-05-06 10:59 47.45739 7.52441 35884 ft 420 kts 259°
2026-05-06 10:59 47.45169 7.43846 35872 ft 421 kts 259°
2026-05-06 11:00 47.44585 7.35227 35862 ft 422 kts 259°
2026-05-06 11:00 47.44000 7.26594 35858 ft 423 kts 259°
2026-05-06 11:01 47.43397 7.17947 35858 ft 424 kts 259°
2026-05-06 11:01 47.42795 7.09285 35864 ft 424 kts 259°
2026-05-06 11:02 47.42186 7.00602 35872 ft 426 kts 259°
2026-05-06 11:02 47.41576 6.91891 35872 ft 427 kts 260°
2026-05-06 11:03 47.40948 6.83158 35874 ft 428 kts 259°
2026-05-06 11:03 47.40304 6.74420 35879 ft 429 kts 259°
2026-05-06 11:04 47.39781 6.67149 35874 ft 428 kts 259°
2026-05-06 11:04 47.39131 6.58409 35884 ft 429 kts 260°
2026-05-06 11:05 47.38476 6.49639 35866 ft 430 kts 260°
2026-05-06 11:05 47.37814 6.40866 35884 ft 431 kts 260°
2026-05-06 11:06 47.37136 6.32076 35891 ft 431 kts 260°
2026-05-06 11:06 47.36462 6.23273 35919 ft 432 kts 260°
2026-05-06 11:07 47.35771 6.14474 35895 ft 433 kts 261°
2026-05-06 11:07 47.35081 6.05666 35888 ft 432 kts 260°
2026-05-06 11:08 47.34361 5.96872 35887 ft 433 kts 260°
2026-05-06 11:08 47.33640 5.88118 35890 ft 433 kts 260°
2026-05-06 11:09 47.32902 5.79299 35903 ft 434 kts 260°
2026-05-06 11:09 47.32198 5.70455 35899 ft 435 kts 260°
2026-05-06 11:10 47.31456 5.61604 35887 ft 435 kts 260°
2026-05-06 11:10 47.30717 5.52748 35886 ft 436 kts 261°
2026-05-06 11:11 47.29982 5.43870 35881 ft 436 kts 260°
2026-05-06 11:11 47.29237 5.35000 35887 ft 437 kts 261°
2026-05-06 11:12 47.28814 5.26050 35878 ft 443 kts 275°
2026-05-06 11:12 47.29598 5.21655 35873 ft 448 kts 291°
2026-05-06 11:12 47.31168 5.17668 35878 ft 453 kts 302°
2026-05-06 11:13 47.34785 5.10043 35879 ft 454 kts 302°
2026-05-06 11:13 47.38367 5.02377 35875 ft 454 kts 301°
2026-05-06 11:14 47.41927 4.94685 35882 ft 454 kts 302°
2026-05-06 11:14 47.45502 4.86988 35873 ft 455 kts 302°
2026-05-06 11:15 47.49075 4.79272 35370 ft 455 kts 302°
2026-05-06 11:15 47.50875 4.75364 34284 ft 465 kts 302°
2026-05-06 11:15 47.52700 4.71403 33613 ft 464 kts 302°
2026-05-06 11:15 47.54501 4.67483 33120 ft 457 kts 302°
2026-05-06 11:16 47.56281 4.63611 32590 ft 453 kts 302°
2026-05-06 11:16 47.58041 4.59770 32098 ft 447 kts 302°
2026-05-06 11:16 47.59772 4.55980 31593 ft 442 kts 302°
2026-05-06 11:16 47.61490 4.52237 31095 ft 437 kts 302°
2026-05-06 11:17 47.63183 4.48532 30595 ft 432 kts 302°
2026-05-06 11:17 47.64839 4.44901 30112 ft 428 kts 302°
2026-05-06 11:17 47.66500 4.41256 29568 ft 425 kts 302°
2026-05-06 11:17 47.68141 4.37643 29090 ft 420 kts 302°
2026-05-06 11:18 47.69767 4.34057 28610 ft 417 kts 302°
2026-05-06 11:18 47.71379 4.30500 28131 ft 414 kts 303°
2026-05-06 11:18 47.72987 4.26959 27643 ft 413 kts 303°
2026-05-06 11:18 47.74585 4.23425 27166 ft 411 kts 302°
2026-05-06 11:19 47.76171 4.19910 26704 ft 408 kts 303°
2026-05-06 11:19 47.77749 4.16416 26217 ft 405 kts 304°
2026-05-06 11:19 47.79308 4.12950 25734 ft 402 kts 304°
2026-05-06 11:19 47.80852 4.09513 25267 ft 399 kts 304°
2026-05-06 11:20 47.82396 4.06096 24788 ft 396 kts 304°
2026-05-06 11:20 47.83928 4.02706 24318 ft 394 kts 304°
2026-05-06 11:20 47.85446 3.99321 23847 ft 392 kts 304°
2026-05-06 11:20 47.86949 3.95944 23353 ft 391 kts 304°
2026-05-06 11:21 47.88454 3.92584 22830 ft 389 kts 304°
2026-05-06 11:21 47.89950 3.89245 22363 ft 385 kts 304°
2026-05-06 11:21 47.91430 3.85935 21879 ft 382 kts 304°
2026-05-06 11:21 47.92891 3.82659 21410 ft 378 kts 304°
2026-05-06 11:22 47.94336 3.79408 20934 ft 374 kts 304°
2026-05-06 11:22 47.95765 3.76190 20446 ft 370 kts 304°
2026-05-06 11:22 47.97184 3.73003 19987 ft 367 kts 303°
2026-05-06 11:22 47.98581 3.69842 19507 ft 363 kts 303°
2026-05-06 11:23 47.99966 3.66706 19028 ft 360 kts 303°
2026-05-06 11:23 48.01342 3.63603 18552 ft 357 kts 303°
2026-05-06 11:23 48.02705 3.60528 18066 ft 354 kts 303°
2026-05-06 11:23 48.04053 3.57476 17550 ft 350 kts 303°
2026-05-06 11:24 48.05384 3.54463 17096 ft 345 kts 303°
2026-05-06 11:24 48.06697 3.51493 16620 ft 341 kts 303°
2026-05-06 11:24 48.07995 3.48549 16144 ft 337 kts 303°
2026-05-06 11:24 48.09269 3.45637 15668 ft 333 kts 303°
2026-05-06 11:25 48.10523 3.42792 15210 ft 330 kts 303°
2026-05-06 11:25 48.11775 3.39939 14738 ft 326 kts 303°
2026-05-06 11:25 48.13014 3.37113 14268 ft 323 kts 303°
2026-05-06 11:25 48.14237 3.34321 13805 ft 319 kts 303°
2026-05-06 11:26 48.15450 3.31558 13303 ft 316 kts 303°
2026-05-06 11:26 48.16646 3.28821 12856 ft 312 kts 303°
2026-05-06 11:26 48.17823 3.26126 12431 ft 307 kts 303°
2026-05-06 11:26 48.18982 3.23464 12006 ft 302 kts 302°
2026-05-06 11:27 48.20145 3.20918 11860 ft 290 kts 304°
2026-05-06 11:27 48.21281 3.18446 11612 ft 286 kts 303°
2026-05-06 11:27 48.22398 3.16001 11373 ft 283 kts 303°
2026-05-06 11:27 48.23542 3.13606 11105 ft 282 kts 311°
2026-05-06 11:28 48.24997 3.11674 10781 ft 279 kts 320°
2026-05-06 11:28 48.26518 3.09872 10373 ft 278 kts 320°
2026-05-06 11:28 48.28034 3.08069 10017 ft 276 kts 320°
2026-05-06 11:28 48.29481 3.06259 9868 ft 267 kts 314°
2026-05-06 11:29 48.30808 3.04234 9736 ft 275 kts 312°
2026-05-06 11:29 48.32145 3.02168 9602 ft 276 kts 313°
2026-05-06 11:29 48.33485 3.00103 9464 ft 275 kts 313°
2026-05-06 11:29 48.34815 2.98046 9323 ft 274 kts 313°
2026-05-06 11:30 48.36140 2.95987 9195 ft 273 kts 313°
2026-05-06 11:30 48.37458 2.93939 9057 ft 271 kts 313°
2026-05-06 11:30 48.38773 2.91895 8935 ft 272 kts 313°
2026-05-06 11:30 48.40087 2.89861 8802 ft 270 kts 313°
2026-05-06 11:31 48.40689 2.88934 8746 ft 269 kts 313°
2026-05-06 11:31 48.41979 2.86865 8600 ft 271 kts 309°
2026-05-06 11:31 48.43092 2.84621 8474 ft 270 kts 303°
2026-05-06 11:31 48.44041 2.82167 8341 ft 272 kts 297°
2026-05-06 11:32 48.44816 2.79558 8209 ft 273 kts 291°
2026-05-06 11:32 48.45374 2.76845 8076 ft 272 kts 285°
2026-05-06 11:32 48.45724 2.74046 7953 ft 273 kts 281°
2026-05-06 11:32 48.45882 2.71208 7822 ft 272 kts 275°
2026-05-06 11:33 48.45962 2.68353 7690 ft 273 kts 276°
2026-05-06 11:33 48.46039 2.65499 7566 ft 272 kts 275°
2026-05-06 11:33 48.46143 2.62656 7434 ft 272 kts 278°
2026-05-06 11:33 48.46286 2.59821 7305 ft 272 kts 276°
2026-05-06 11:34 48.46427 2.56977 7178 ft 272 kts 277°
2026-05-06 11:34 48.46568 2.54139 7057 ft 271 kts 277°
2026-05-06 11:34 48.46704 2.51355 7012 ft 267 kts 277°
2026-05-06 11:34 48.46837 2.48537 7012 ft 271 kts 277°
2026-05-06 11:35 48.46967 2.45692 7006 ft 272 kts 277°
2026-05-06 11:35 48.47099 2.42845 7003 ft 273 kts 277°
2026-05-06 11:35 48.47234 2.39998 7009 ft 272 kts 278°
2026-05-06 11:35 48.47371 2.37150 7005 ft 272 kts 277°
2026-05-06 11:36 48.47505 2.34302 7004 ft 273 kts 277°
2026-05-06 11:36 48.47639 2.31444 7010 ft 274 kts 277°
2026-05-06 11:36 48.47772 2.28589 6994 ft 272 kts 277°
2026-05-06 11:36 48.47905 2.25735 7009 ft 274 kts 277°
2026-05-06 11:37 48.48038 2.22872 6994 ft 273 kts 277°
2026-05-06 11:37 48.48175 2.20019 6994 ft 273 kts 277°
2026-05-06 11:37 48.48303 2.17209 7003 ft 273 kts 277°
2026-05-06 11:37 48.48433 2.14358 6999 ft 273 kts 277°
2026-05-06 11:38 48.48609 2.11516 6995 ft 271 kts 287°
2026-05-06 11:38 48.49278 2.08897 7006 ft 268 kts 297°
2026-05-06 11:38 48.50107 2.06394 7004 ft 266 kts 303°
2026-05-06 11:38 48.51093 2.04045 6996 ft 263 kts 315°
2026-05-06 11:39 48.52430 2.02213 7001 ft 254 kts 322°
2026-05-06 11:39 48.53730 2.00546 6995 ft 237 kts 322°
2026-05-06 11:39 48.55010 1.99112 6856 ft 223 kts 339°
2026-05-06 11:39 48.56476 1.98795 6709 ft 208 kts
2026-05-06 11:40 48.57868 1.99041 6462 ft 195 kts
2026-05-06 11:40 48.59107 1.99736 6080 ft 188 kts 26°
2026-05-06 11:40 48.60249 2.00644 5649 ft 184 kts 26°
2026-05-06 11:40 48.61253 2.01860 5135 ft 188 kts 46°
2026-05-06 11:41 48.61955 2.03534 4656 ft 189 kts 57°
2026-05-06 11:41 48.62565 2.05241 4323 ft 180 kts 57°
2026-05-06 11:41 48.63145 2.06859 4064 ft 170 kts 57°
2026-05-06 11:41 48.63696 2.08397 3831 ft 163 kts 56°
2026-05-06 11:42 48.64224 2.09871 3612 ft 157 kts 56°
2026-05-06 11:42 48.64737 2.11302 3406 ft 153 kts 56°
2026-05-06 11:42 48.65244 2.12718 3202 ft 153 kts 56°
2026-05-06 11:42 48.65752 2.14138 2989 ft 154 kts 57°
2026-05-06 11:43 48.66258 2.15557 2794 ft 153 kts 57°
2026-05-06 11:43 48.66764 2.16975 2568 ft 153 kts 57°
2026-05-06 11:43 48.67269 2.18392 2378 ft 154 kts 57°
2026-05-06 11:44 48.68288 2.21253 1938 ft 153 kts 58°
2026-05-06 11:44 48.68787 2.22656 1762 ft 146 kts 58°
2026-05-06 11:44 48.69256 2.23977 1538 ft 140 kts 57°
2026-05-06 11:44 48.69717 2.25272 1333 ft 139 kts 57°
2026-05-06 11:45 48.70173 2.26554 1116 ft 139 kts 57°
2026-05-06 11:45 48.70634 2.27852 941 ft 140 kts 56°
2026-05-06 11:45 48.71096 2.29131 757 ft 138 kts 57°
2026-05-06 11:45 48.71551 2.30424 578 ft 139 kts 57°
2026-05-06 11:46 48.72007 2.31721 394 ft 139 kts 57°
2026-05-06 11:46 48.72455 2.32973 297 ft 123 kts 62°
2026-05-06 11:46 48.72760 2.33847 295 ft 53 kts 63°
2026-05-06 11:46 48.72920 2.34293 295 ft 46 kts 61°
2026-05-06 11:47 48.72996 2.34594 294 ft 29 kts 79°
2026-05-06 11:47 48.73024 2.34896 294 ft 29 kts 81°
2026-05-06 11:47 48.73037 2.35149 291 ft 20 kts 101°
2026-05-06 11:47 48.73016 2.35321 294 ft 17 kts 84°
2026-05-06 11:48 48.73073 2.35483 296 ft 19 kts 54°
2026-05-06 11:48 48.73060 2.35609 295 ft 14 kts 178°
2026-05-06 11:48 48.73011 2.35578 295 ft 5 kts 156°
2026-05-06 11:48 48.72989 2.35623 295 ft 7 kts 122°
2026-05-06 11:49 48.72969 2.35673 297 ft 1 kts 121°
2026-05-06 11:49 48.72969 2.35674 297 ft 0 kts 121°